sat.trackr.live / text

‹ back to catalog

STARLINK-5300

NORAD 55676 · 2023-021BA

PAYLOAD ACTIVE UNKNOWN

§ Identity

Operator
Country
US
Launch date
2023-02-17
Launch site
AFWTR
Launch vehicle
Mass (kg)
RCS (m²)

Purposes: comms

External: N2YO · Heavens-Above · Gunter

§ Orbital elements

Epoch: 2026-09-20T12:58:56.129952Z

Period
96.11 min
Inclination
70.0022°
Eccentricity
0.0003138
Mean motion
14.98337681 rev/d
Perigee alt
569.9 km
Apogee alt
574.2 km
Semi-major
6,950.2 km
B*
1.6900e-4
RAAN
13.2035°
Arg perigee
269.7044°
Mean anomaly
90.3755°
Rev number
19,896

§ Raw data

STARLINK-53001 55676U 23021BA  26263.54092743  .00001924  00000+0  16900-3 0  99942 55676  70.0022  13.2035 0003138 269.7044  90.3755 14.98337681198965

JSON: /api/v1/satellites/55676 · /tle

For live sub-satellite position, see the globe view (requires WebGL).

§ Visibility from observer

Set your observer location to see the next 7 days of passes ≥ 10°. The values pass through the URL so the page stays shareable.

No JS? Fill the form by hand. The geolocation button needs JavaScript.